Flag for Austria Weather past 2 weeks in Mattersburg, Burgenland, Austria

Now
62 °F

Overcast.


Feels Like: 62 °F
Forecast: 50 / 67 °F
Wind: 2 mph from North

Location: Eisenstadt

Current Time: Aug 20, 2014 at 7:30:32 AM

Latest Report: Aug 20, 2014 at 6:00 AM


Visibility: 6 mi

Pressure: 29.94 "Hg

Humidity: 80%

Dew point: 56 °F

Location of MattersburgLocation

Historic Weather in Mattersburg — Graph

°F

Mattersburg temperature yesterday

Maximum temperature yesterday: 71 °F (at 11:00 AM)
Minimum temperature yesterday: 59 °F (at 11:00 PM)
Average temperature yesterday: 65 °F

Past Weeks' High & Low Weather Summary

 TemperatureHumidityPressure
High86 °F (Aug 9, 3:00 PM)97% (Aug 13, 5:00 AM)30.06 "Hg (Aug 13, 5:00 AM)
Low53 °F (Aug 18, 6:00 AM)41% (Aug 17, 4:00 PM)29.62 "Hg (Aug 13, 10:00 PM)
Average68 °F71%29.91 "Hg
* Reported Aug 5 6:00 AM — Aug 20 6:00 AM, Mattersburg, Weather by CustomWeather, © 2014

Note: Actual official high and low records may vary slightly from our data, if they occured in-between our weather recording intervals... More about our weather records

Advertising

Mattersburg weather history for previous 24 hours

 ConditionsComfort  
Time TempWeatherWind HumidityBarometerVisibility
6:00 AM
Aug 20
62 °FOvercast.2 mph80%29.94 "Hg6 mi
5:00 AM62 °FPassing clouds.3 mph81%29.93 "Hg6 mi
4:00 AM63 °FPassing clouds.3 mph81%29.92 "Hg6 mi
3:00 AM63 °FMild.3 mph81%29.91 "HgN/A
2:00 AM62 °FPassing clouds.1 mph87%29.92 "Hg6 mi
1:00 AM62 °FCool.1 mph83%29.92 "HgN/A
12:00 AM59 °FCool.2 mph85%29.93 "HgN/A
11:00 PM
Aug 19
59 °FPassing clouds.2 mph86%29.93 "Hg9 mi
10:00 PM60 °FCool.2 mph88%29.93 "HgN/A
9:00 PM62 °FCool.2 mph84%29.92 "HgN/A
8:00 PM65 °FPassing clouds.No wind77%29.90 "Hg12 mi
7:00 PM65 °FOvercast.2 mph71%29.90 "Hg12 mi
6:00 PM66 °FMild.1 mph70%29.90 "HgN/A
5:00 PM67 °FOvercast.3 mph68%29.90 "Hg12 mi
4:00 PM67 °FMild.2 mph68%29.89 "HgN/A
3:00 PM67 °FMild.5 mph62%29.89 "HgN/A
2:00 PM67 °FOvercast.7 mph66%29.90 "Hg12 mi
1:00 PM68 °FMild.7 mph66%29.89 "HgN/A
12:00 PM70 °FMild.3 mph58%29.89 "HgN/A
11:00 AM71 °FMild.2 mph54%29.89 "HgN/A
10:00 AM70 °FMild.1 mph57%29.88 "HgN/A
9:00 AM69 °FMild.1 mph62%29.88 "HgN/A
8:00 AM65 °FPartly sunny.2 mph73%29.88 "Hg12 mi
7:00 AM63 °FScattered clouds.5 mph80%29.88 "Hg12 mi
Weather by CustomWeather, © 2014

See weather overviewHow to use our weather pages